Flag Weather past 2 weeks in Maple Ridge, British Columbia, Canada

Now
39 °F

Chilly.


Feels Like: 39 °F
Forecast: 40 / 46 °F
Wind: No wind

Location: P. Meadows Coastal Station

Current Time: Nov 22, 2014 at 11:34:41 PM

Latest Report: Nov 22, 2014 at 11:00 PM


Visibility: N/A

Pressure: 30.06 "Hg

Humidity: 98%

Dew point: 39 °F

Location of Maple RidgeLocation

Historic Weather in Maple Ridge — Graph

°F

Maple Ridge temperature yesterday

Maximum temperature yesterday: 49 °F (at 1:00 PM)
Minimum temperature yesterday: 45 °F (at 8:00 PM)
Average temperature yesterday: 47 °F

Past Weeks' High & Low Weather Summary

 TemperatureHumidityPressure
High53 °F (Nov 10, 3:00 PM)100% (Nov 8, 6:00 AM)30.57 "Hg (Nov 8, 6:00 AM)
Low21 °F (Nov 14, 4:00 AM)20% (Nov 12, 3:00 PM)29.27 "Hg (Nov 21, 7:00 PM)
Average39 °F78%30.13 "Hg
* Reported Nov 7 10:00 PM — Nov 22 10:00 PM, Maple Ridge, Weather by CustomWeather, © 2014

Note: Actual official high and low records may vary slightly from our data, if they occured in-between our weather recording intervals... More about our weather records

Advertising

Maple Ridge weather history for previous 24 hours

 ConditionsComfort  
Time TempWeatherWind HumidityBarometerVisibility
10:00 PM
Nov 22
38 °FChilly.No wind97%30.05 "HgN/A
9:00 PM39 °FChilly.2 mph96%30.02 "HgN/A
8:00 PM43 °FQuite cool.2 mph89%30.01 "HgN/A
7:00 PM41 °FQuite cool.3 mph93%29.98 "HgN/A
5:00 PM46 °FCool.3 mph79%29.93 "HgN/A
4:00 PM49 °FCool.6 mph68%29.89 "HgN/A
3:00 PM52 °FCool.5 mph63%29.85 "HgN/A
2:00 PM49 °FCool.1 mph80%29.83 "HgN/A
1:00 PM47 °FCool.1 mph86%29.80 "HgN/A
12:00 PM49 °FCool.2 mph83%29.77 "HgN/A
11:00 AM49 °FCool.1 mph77%29.74 "HgN/A
10:00 AM46 °FCool.1 mph89%29.71 "HgN/A
9:00 AM42 °FQuite cool.2 mph97%29.69 "HgN/A
7:00 AM41 °FQuite cool.No wind89%29.64 "HgN/A
6:00 AM41 °FQuite cool.3 mph96%29.62 "HgN/A
4:00 AM43 °FQuite cool.1 mph88%29.57 "HgN/A
3:00 AM45 °FCool.3 mph84%29.53 "HgN/A
2:00 AM46 °FCool.7 mph81%29.48 "HgN/A
1:00 AM47 °FCool.8 mph83%29.45 "HgN/A
12:00 AM47 °FCool.6 mph84%29.40 "HgN/A
11:00 PM
Nov 21
47 °FCool.6 mph82%29.35 "HgN/A
Weather by CustomWeather, © 2014

See weather overviewHow to use our weather pages